Content
SEND FEEDBACK

Daily
Averages
Monthly
Summary
United States of America

CHESTERFIELD, MISSOURI


Home > North America > United States > Missouri
Elevation: 559 feet     Latitude: 38 41N     Longitude: 090 31W

WEATHER
 
SELECT A DAY
Number of Records: 203,268;   Date Range: 1/1/95 - 7/7/14
 
SHARE

PRINT THIS DATA

[ ← Previous Day ]
WEATHER ALMANAC - MARCH 26, 2013
[ Next Day → ]
[ °C ]   °F
Weather ElementAverageHighLow
Temperature35 °F39.9 °F (3:51 pm)30 °F (11:51 pm)
Dewpoint23.2 °F25 °F (3:51 am)21.2 °F (8:51 pm)
Humidity63.2 %76 % (2:51 am)49 % (3:51 pm)
Barometer30.33 in30.39 in (11:51 pm)30.23 in (2:51 am)
Wind Speed8.3 mph16.1 mph (1:51 pm)
Wind Gust20.7 mph (2:51 pm)
Weather ElementAverage
Visibility10 mi
Wind DirectionW (271.3 °)

Weather ElementTotal
Precipitation---
Heating Degree Days30.1 (Base 65)
Averaged from 23 records on March 26, 2013
WEATHER CONDITIONS BREAKOUT
WIND DIRECTION BREAKOUT
WEATHER BY HOUR - MARCH 26, 2013
[ °C ]   °F
Local TimeTemperatureDewpointHumidityBarometerVisibilityWind DirectionWind SpeedGust SpeedPrecipitationEventsConditions
1:51 AM32.0 °F24.1 °F73 %30.24 in10.0 miWNW (300°)8.1 mphOvercast
2:51 AM30.9 °F24.1 °F76 %30.23 in10.0 miWNW (300°)6.9 mphOvercast
3:51 AM32.0 °F25.0 °F75 %30.23 in10.0 miWNW (300°)6.9 mphOvercast
4:51 AM32.0 °F25.0 °F75 %30.25 in10.0 miWNW (300°)6.9 mphOvercast
5:51 AM32.0 °F24.1 °F73 %30.26 in10.0 miWNW (290°)8.1 mphOvercast
6:51 AM32.0 °F24.1 °F73 %30.28 in10.0 miWNW (300°)5.8 mphOvercast
7:51 AM32.0 °F24.1 °F73 %30.30 in10.0 miWNW (290°)9.2 mphOvercast
8:51 AM33.1 °F25.0 °F72 %30.32 in10.0 miWNW (290°)8.1 mphOvercast
9:51 AM34.0 °F25.0 °F70 %30.34 in10.0 miWNW (300°)8.1 mphOvercast
10:51 AM36.0 °F24.1 °F62 %30.36 in10.0 miWNW (290°)6.9 mphMostly Cloudy
11:51 AM37.0 °F24.1 °F59 %30.37 in10.0 miWNW (290°)10.4 mphScattered Clouds
12:51 PM39.0 °F23.0 °F53 %30.36 in10.0 miWNW (290°)11.5 mph16.1 mphScattered Clouds
1:51 PM39.0 °F21.9 °F50 %30.36 in10.0 miWNW (290°)16.1 mphScattered Clouds
2:51 PM39.0 °F21.9 °F50 %30.35 in10.0 miWNW (290°)15.0 mph20.7 mphScattered Clouds
3:51 PM39.9 °F21.9 °F49 %30.35 in10.0 miWest (280°)13.8 mphScattered Clouds
4:51 PM39.9 °F21.9 °F49 %30.35 in10.0 miNW (310°)11.5 mphScattered Clouds
5:51 PM39.0 °F23.0 °F53 %30.36 in10.0 miWNW (290°)12.7 mphScattered Clouds
6:51 PM37.9 °F23.0 °F55 %30.36 in10.0 miWNW (290°)9.2 mphScattered Clouds
7:51 PM36.0 °F21.9 °F57 %30.37 in10.0 miNW (310°)5.8 mphPartly Cloudy
8:51 PM35.6 °F21.2 °F56 %30.34 in10.0 miNW (320°)4.6 mphPartly Cloudy
9:51 PM33.8 °F21.2 °F60 %30.35 in10.0 miNW (320°)4.6 mphClear
10:51 PM32.0 °F21.9 °F66 %30.38 in10.0 miCalmClear
11:51 PM30.0 °F23.0 °F75 %30.39 in10.0 miCalmClear
Hourly data recorded from KSTL, located miles away from Chesterfield, Missouri







STORIES FROM OUR PARTNERS